SCP
0 0 0 0 0 0 0 -0 -0 -0 0 0 0 0 0 0 0 0 0 0 0 0 0 0 0 0 0 0 0 0 0 0 0 0 0 0 0 0 0 0 0 0 0 0 0 0 0 0 0 0 0 0 0 0
0 0 0 0 0 0 0 0 -0 0 0 0 0 0 0 0 0 0 0 0 0 0 0 0 0 0 0 0 0 0 0 0 0 0 0 0 0 0 0 0 0 0 0 0 0 0 0 0 0 0 0 0 0 0
0 0 0 0 0 0 0 0 0 0 0 0 0 0 0 0 0 0 0 0 0 0 0 0 0 0 0 0 0 0 0 0 0 0 0 0 0 0 0 0 0 0 0 0 0 0 0 0 0 0 0 0 0 0
0 0 0 0 0 0 0 0 0 0 0 0 0 0 0 0 0 0 0 0 0 0 0 0 0 0 0 0 0 0 0 0 0 0 0 0 0 0 0 0 0 0 0 0 0 0 0 0 0 0 0 0 0 0
0 0 0 0 0 0 0 0 0 0 0 0 0 0 0 0 0 0 0 0 0 0 0 0 0 0 0 0 0 0 0 0 0 0 0 0 0 0 0 0 0 0 -0 0 -0 0 0 0 0 0 -0 0 0 0
0 0 0 0 0 0 -0 0 0 0 0 0 0 0 0 0 0 0 0 0 0 0 0 0 0 0 0 0 0 0 0 0 0 0 0 0 0 0 0 -0 0 0 0 0 0 0 0 0 0 0 0 0 0 0
0 0 0 0 0 0 0 0 0 0 0 0 0 0 0 0 0 0 0 0 0 0 0 0 0 0 0 0 0 0 0 0 0 0 0 0 0 0 0 -0 -0 0 0 0 0 0 0 0 0 0 0 0 0 0
0 0 0 0 0 0 0 0 0 0 0 0 0 0 0 0 0 0 0 0 0 0 0 0 0 0 0 0 0 0 0 0 0 0 0 0 0 0 0 0 0 0 0 0 0 0 0 0 0 0 0 0 0 0
0 0 0 0 0 0 0 0 0 0 0 0 0 0 0 0 0 0 0 0 0 0 0 0 0 0 0 0 0 0 0 0 0 0 0 0 0 0 0 0 0 0 0 0 0 0 0 0 0 0 0 0 0 0
0 0 0 0 0 0 0 0 0 0 0 0 0 0 0 0 0 0 0 0 0 0 0 0 0 0 0 0 0 0 0 0 0 0 0 0 0 0 0 0 0 0 0 0 0 0 0 0 0 0 0 0 0 0
0 0 0 0 0 0 0 0 0 0 0 0 0 0 0 0 0 0 0 0 0 0 0 0 0 0 0 0 0 0 0 0 0 0 0 0 0 0 0 0 0 0 0 0 0 0 0 0 0 0 0 0 0 0
0 0 0 0 0 0 0 0 0 0 0 0 0 0 0 0 0 0 0 0 0 0 0 0 0 0 0 0 0 0 0 0 0 0 0 0 0 0 0 0 0 0 0 0 0 0 0 0 0 0 0 0 0 0
0 0 0 0 0 0 0 0 0 0 0 0 0 0 0 0 0 0 0 0 0 0 0 0 0 0 0 0 0 0 0 0 0 0 0 0 0 0 0 0 0 0 0 0 0 0 0 0 0 0 0 0 0 0
0 0 0 0 0 0 0 0 0 0 0 0 0 0 0 0 0 0 0 0 0 0 0 0 0 0 0 0 0 0 0 0 0 0 0 0 0 0 0 0 0 0 0 0 0 0 0 0 0 0 0 0 0 0
0 0 0 0 0 0 0 0 0 0 0 0 0 0 0 0 0 0 0 0 0 0 0 0 0 0 0 0 0 0 0 0 0 0 0 0 0 0 0 0 0 0 0 0 0 0 0 0 0 0 0 0 0 0
0 0 0 0 0 0 0 0 0 0 0 0 0 0 0 0 0 0 0 0 0 0 0 0 0 0 0 0 0 0 0 0 0 0 0 0 0 0 0 0 0 0 0 0 0 0 0 0 0 0 0 0 0 0
0 0 0 0 0 0 0 0 0 0 0 0 0 0 0 0 0 0 0 0 0 0 0 0 0 0 0 0 0 0 0 0 0 0 0 0 0 0 0 0 0 0 0 0 0 0 0 0 0 0 0 0 0 0
0 0 0 0 0 0 0 0 0 0 0 0 0 0 0 0 0 0 0 0 0 0 0 0 0 0 0 0 0 0 0 0 0 0 0 0 0 0 0 0 0 0 0 0 0 0 0 0 0 0 0 0 0 0
0 0 0 0 0 0 0 0 0 0 0 0 0 0 0 0 0 0 0 0 0 0 0 0 0 0 0 0 0 0 0 0 0 0 0 0 0 0 0 0 0 0 0 0 0 0 0 0 0 0 0 0 0 0
0 0 0 0 0 0 0 0 0 0 0 0 0 0 0 0 0 0 0 0 0 0 0 0 0 0 0 0 0 0 0 0 0 0 0 0 0 0 0 0 0 0 0 0 0 0 0 0 0 0 0 0 0 0
0 0 0 0 0 0 0 0 0 0 0 0 0 0 0 0 0 0 0 0 0 0 0 0 0 0 0 0 0 0 0 0 0 0 0 0 0 0 0 0 0 0 0 0 0 0 0 0 0 0 0 0 0 0
0 0 0 0 0 0 0 0 0 0 0 0 0 0 0 0 0 0 0 0 0 0 0 0 0 0 0 0 0 0 0 0 0 0 0 0 0 0 0 0 0 0 0 0 0 0 0 0 0 0 0 0 0 0
0 0 0 0 0 0 0 0 0 0 0 0 0 0 0 0 0 0 0 0 0 0 0 0 0 0 0 0 0 0 0 0 0 0 0 0 0 0 0 0 0 0 0 0 0 0 0 0 0 0 0 0 0 0
0 0 0 0 0 0 0 0 0 0 0 0 0 0 0 0 0 0 0 0 0 0 0 0 0 0 0 0 0 0 0 0 0 0 0 0 0 0 0 0 0 0 0 0 0 0 0 0 0 0 0 0 0 0
0 0 0 0 0 0 0 0 0 0 0 0 0 0 0 0 0 0 0 0 0 0 0 0 0 0 0 0 0 0 0 0 0 0 0 0 0 0 0 0 0 0 0 0 0 0 0 0 0 0 0 0 0 0
0 0 0 0 0 0 0 0 0 0 0 0 0 0 0 0 0 0 0 0 0 0 0 0 0 0 0 0 0 0 0 0 0 0 0 0 0 0 0 0 0 0 0 0 0 0 0 0 0 0 0 0 0 0
0 0 0 0 0 0 0 0 0 0 0 0 0 0 0 -0 0 0 0 0 0 0 -0 -0 -0 -0 0 0 0 0 0 0 0 0 0 0 0 0 0 0 0 0 0 0 0 0 0 0 0 0 0 0 0 0
0 0 0 0 0 0 0 0 0 0 0 0 0 0 0 0 0 0 0 -0 0 0 -0 -0 0 -0 -0 -0 -0 -0 -0 -0 -0 -0 0 0 0 0 0 0 0 0 0 0 0 0 0 0 0 0 0 0 0 0
0 0 0 0 0 0 0 0 0 0 0 0 0 0 0 0 -0 -0 -0 0 -0 -0 -0 0 0 -0 -0 0 0 0 0 0 -0 -0 -0 -0 -0 0 0 0 0 0 0 0 0 0 0 0 0 0 0 0 0 0
0 0 0 0 0 0 0 0 0 0 0 0 0 0 0 0 0 -0 0 0 -0 -0 -0 -0 0 0 0 0 0 0 0 0 0 -0 -0 -0 0 0 0 0 0 0 0 0 0 0 0 0 0 0 0 0 0 0
0 0 0 0 0 0 0 0 0 0 -0 -0 0 0 0 0 0 -0 -0 -0 -0 -0 -0 0 0 0 -0 -0 -0 -0 0 0 0 0 0 0 0 0 0 0 0 0 0 0 0 0 0 0 0 0 0 0 0 0
0 0 0 0 0 0 0 0 0 0 0 0 0 0 0 0 0 0 0 0 -0 -0 0 0 0 0 0 0 0 0 0 0 0 0 0 0 0 0 0 0 0 0 0 0 0 0 0 0 0 0 0 0 0 0
0 0 0 0 0 0 0 0 0 0 0 0 0 0 0 0 0 0 0 0 0 0 0 0 0 -0 -0 -0 0 0 0 0 -0 0 0 -0 -0 -0 0 0 0 0 0 0 0 0 0 0 0 0 0 0 0 0
Wind_Speed_500mb
55 55 61 59 56 51 46 40 43 47 37 36 30 26 21 17 15 12 11 14 12 7 3 1 1 3 3 5 12 7 7 10 9 13 14 9 14 7 8 6 8 14 9 12 6 18 24 9 6 9 12 7 5 6
50 48 57 56 52 47 50 43 50 42 29 34 32 29 24 20 18 15 7 16 18 8 5 14 13 12 7 0 4 3 6 5 7 9 5 3 10 5 12 13 6 9 6 9 6 12 4 2 11 4 2 4 1 4
53 49 49 51 55 50 47 43 49 34 33 34 33 30 26 23 20 20 18 16 12 7 15 15 14 17 12 10 7 6 4 1 2 3 4 4 10 7 12 16 10 10 5 9 3 10 11 14 16 17 7 4 7 10
57 59 52 48 50 45 41 51 40 30 32 32 32 31 28 24 22 21 20 21 17 4 8 7 21 18 21 12 10 8 8 4 2 2 7 7 11 4 8 8 12 10 16 12 18 25 17 19 12 9 12 11 12 10
51 48 54 59 47 44 40 45 39 32 31 32 33 30 27 24 21 19 20 24 25 6 5 2 5 9 29 20 13 8 6 4 6 7 9 5 0 7 3 5 15 16 17 14 18 23 12 11 4 11 16 16 13 12
48 53 49 50 48 43 45 41 30 30 32 33 34 30 28 24 23 20 6 21 25 21 5 3 1 3 15 20 15 10 5 2 4 7 4 3 2 6 9 19 21 14 26 24 24 10 15 11 9 13 15 16 14 11
45 44 43 40 36 36 30 25 21 27 33 35 33 30 28 28 35 10 5 10 32 23 5 7 9 7 18 21 13 10 5 3 5 6 10 10 10 8 12 25 33 24 26 23 18 10 11 14 11 19 20 17 16 11
43 42 38 32 28 30 27 24 23 25 34 35 32 28 26 26 33 8 6 8 33 12 5 6 6 13 22 19 20 11 12 8 5 8 6 13 6 12 10 19 29 25 24 23 19 23 12 10 17 22 21 19 15 8
39 41 36 31 31 31 27 23 24 29 35 34 29 25 21 20 14 14 8 11 31 8 5 7 9 9 25 14 10 12 11 10 5 12 12 10 10 13 12 17 14 15 13 9 22 26 17 21 27 25 22 19 14 7
41 40 38 38 33 30 29 29 27 31 36 36 38 10 10 15 18 26 7 6 9 14 8 10 6 7 23 25 21 14 11 9 7 10 12 10 18 31 25 20 17 14 15 14 15 28 33 30 31 26 23 18 14 7
42 41 38 37 35 33 30 34 34 37 41 35 11 8 17 37 23 9 10 12 13 10 16 15 22 10 12 17 13 13 7 9 7 10 9 9 10 20 25 26 32 37 29 19 21 17 26 33 33 29 26 21 14 8
40 37 37 36 35 32 31 37 37 39 22 17 17 25 30 8 9 11 10 10 11 10 15 21 21 9 12 7 10 13 8 8 10 19 8 7 10 18 12 9 8 15 26 24 24 19 23 28 29 30 27 21 15 8
43 43 36 37 35 34 33 32 40 35 32 38 10 13 10 8 6 12 17 9 10 15 18 20 22 16 9 10 6 11 13 12 10 9 8 9 8 7 4 8 7 11 20 18 17 17 22 28 31 31 27 21 18 13
37 41 47 37 34 30 31 35 45 34 26 8 11 7 9 8 11 7 7 9 11 13 20 24 26 12 9 14 8 9 7 5 9 11 13 12 9 2 6 5 7 9 22 25 22 21 28 32 33 30 25 23 19 13
40 38 43 46 37 31 36 40 35 28 4 8 7 8 10 5 7 11 9 13 13 13 20 18 14 10 12 7 9 7 10 12 10 14 6 10 7 9 9 7 4 7 11 17 22 28 33 35 35 31 27 23 17 11
40 42 39 41 40 36 31 31 24 10 1 2 3 6 10 13 14 13 12 15 11 12 15 9 8 8 11 7 12 16 10 10 7 6 3 4 9 10 9 7 6 8 13 16 22 29 34 35 32 28 25 19 15 12
35 43 46 48 41 27 29 36 20 8 3 4 7 3 4 2 15 15 12 10 8 13 8 5 8 11 3 9 11 4 7 8 9 7 6 8 12 13 8 2 3 9 13 19 25 30 32 30 27 23 17 14 15 14
27 30 40 48 42 28 16 7 8 6 3 6 11 15 7 7 11 11 8 4 4 6 7 2 1 8 7 9 9 7 6 8 7 5 5 7 11 13 11 10 9 10 15 20 24 27 27 24 19 17 15 12 5 9
41 36 33 47 30 23 8 8 6 7 8 11 8 11 9 7 6 6 8 5 4 2 2 4 7 6 7 3 5 7 8 8 8 6 5 6 6 7 9 9 9 9 12 16 19 20 20 19 18 11 10 13 17 19
32 29 39 39 30 11 7 7 12 4 9 8 8 13 15 15 14 16 18 16 14 12 13 9 11 11 6 5 6 5 6 6 7 8 8 5 5 4 4 4 6 9 11 11 13 18 18 17 18 21 25 25 25 25
25 22 35 37 14 5 4 7 8 6 7 8 13 16 14 15 19 21 22 19 19 18 19 20 24 24 16 14 14 16 19 21 23 22 23 22 18 16 15 16 17 20 25 29 26 28 27 28 26 33 36 33 28 23
23 25 29 25 4 4 4 6 5 12 9 8 14 14 12 18 20 22 16 22 26 26 24 23 20 19 21 19 20 21 24 25 29 28 27 29 30 33 33 32 31 32 32 32 28 38 27 26 25 28 24 21 27 22
12 11 6 4 4 4 6 5 6 9 9 13 11 9 10 12 10 12 11 16 17 9 13 14 17 20 24 26 26 26 27 29 34 37 36 36 38 40 41 41 40 39 40 39 38 37 37 32 27 30 29 27 29 31
5 3 3 3 3 5 7 6 5 5 7 7 6 6 9 9 12 11 7 8 5 2 3 4 8 12 16 17 19 21 21 22 27 34 37 38 41 43 42 43 43 43 43 41 43 46 45 43 40 38 36 34 33 33
1 2 2 2 3 4 5 8 7 7 3 5 6 7 9 11 6 6 4 9 6 2 4 9 12 16 20 26 29 31 30 31 34 37 38 38 40 41 42 42 44 44 41 43 45 44 43 42 44 45 45 44 40 37
1 2 1 3 4 1 2 2 2 3 1 4 4 1 3 4 4 2 6 5 3 2 10 19 26 32 35 36 41 43 42 39 42 49 51 45 46 51 55 54 53 52 46 47 47 48 47 46 44 43 45 44 48 45
1 5 4 2 3 3 3 1 3 2 1 0 4 4 4 7 3 6 4 4 13 24 35 34 31 33 40 47 48 47 47 45 46 53 53 51 49 49 51 55 58 57 51 51 51 50 48 47 46 47 47 44 42 39
2 3 3 7 3 5 3 4 3 5 4 3 5 3 5 6 4 3 3 17 30 30 29 28 31 37 42 44 44 46 48 46 46 49 54 58 56 52 52 54 57 59 62 52 48 46 49 50 50 48 45 44 45 42
2 2 3 3 4 1 5 6 4 4 4 1 2 2 2 4 3 3 13 22 24 26 28 32 29 26 29 32 37 35 34 34 41 51 60 67 67 66 55 55 54 51 47 50 56 62 48 41 42 39 39 42 41 40
4 5 3 3 3 3 4 6 8 9 8 6 2 2 3 6 3 10 19 25 27 33 33 30 35 32 38 44 42 45 39 37 34 42 58 70 77 73 62 58 55 52 50 53 50 49 49 53 52 51 40 31 34 35
2 4 3 2 2 5 10 11 10 7 7 11 11 8 5 3 2 10 20 27 34 38 38 28 24 33 44 48 41 58 61 58 46 43 47 55 61 61 64 59 50 49 44 51 51 46 45 46 43 51 45 41 37 34
4 3 3 3 5 10 9 9 5 4 2 3 4 10 5 2 4 15 22 31 42 52 45 39 40 28 26 36 46 56 65 59 50 43 45 43 31 23 25 36 46 41 37 51 53 42 44 42 40 51 51 46 40 34
3 4 4 4 4 6 9 9 7 3 4 2 2 6 8 6 4 16 26 29 37 48 51 45 37 33 35 33 48 68 69 59 39 28 22 24 19 11 11 8 6 15 32 41 39 39 39 38 41 50 52 46 38 32
Wind_Direction_500mb
207 209 206 211 218 224 230 245 254 256 248 235 230 234 235 233 238 232 227 203 184 233 266 209 290 262 243 237 252 93 208 200 216 240 247 201 261 198 255 344 267 260 261 264 306 284 284 56 146 265 20 37 75 69
197 198 204 208 211 225 232 241 254 258 236 224 219 224 226 225 226 220 221 211 206 212 278 227 214 208 195 71 296 240 326 338 337 256 233 292 225 201 273 235 175 245 291 319 254 310 32 322 265 335 291 15 122 145
197 202 201 205 213 224 232 240 254 252 225 213 212 215 217 217 216 214 211 199 192 239 259 244 226 231 226 217 204 274 187 314 264 224 315 286 244 277 233 242 268 175 181 250 272 268 280 283 257 233 224 232 152 137
203 207 208 206 206 213 223 243 258 234 209 205 204 205 207 207 205 205 192 190 178 202 255 177 229 231 217 214 211 231 269 274 228 273 253 251 254 213 250 315 255 9 160 254 259 267 265 258 243 222 206 181 158 141
199 209 211 212 208 216 235 252 258 212 201 196 195 196 197 197 193 193 196 195 198 175 334 216 290 240 216 215 210 217 189 188 243 235 231 225 4 218 165 275 247 202 254 238 276 317 263 300 216 187 181 175 168 154
192 190 187 197 209 226 244 252 217 199 192 188 188 188 188 183 172 147 184 218 206 206 281 242 275 188 188 180 178 172 177 200 252 278 270 230 274 272 252 256 266 252 251 257 271 282 265 262 215 189 184 167 155 154
189 179 179 189 204 230 224 203 205 188 182 180 181 183 182 175 167 171 201 209 189 175 214 238 186 185 166 169 182 193 190 213 257 262 242 261 229 241 262 259 264 250 254 250 244 238 227 196 230 187 170 166 168 143
181 178 182 186 206 200 191 198 193 178 170 171 175 177 175 175 177 163 165 152 171 169 209 250 150 180 178 187 189 192 207 214 222 238 214 231 211 232 255 252 252 248 249 245 233 213 240 221 187 175 172 168 161 153
176 176 182 181 185 183 182 182 172 163 160 163 162 154 149 165 170 191 134 141 175 159 243 226 198 166 174 172 170 168 207 216 167 231 213 205 213 225 239 248 233 222 215 237 219 211 210 201 197 184 179 180 182 165
174 176 176 174 168 173 173 167 161 159 154 150 142 133 164 175 163 154 142 145 165 211 231 249 207 168 188 181 184 162 191 231 223 194 151 226 245 242 240 237 227 219 216 222 216 214 215 210 196 188 185 182 171 145
174 174 175 177 171 166 171 168 163 157 150 144 155 147 157 140 133 173 188 205 178 211 203 215 207 170 194 192 176 215 179 178 233 150 220 209 247 235 238 240 243 239 233 238 228 231 215 210 199 188 177 166 150 129
176 171 171 166 168 165 164 163 167 159 158 161 148 133 139 164 175 185 197 176 216 211 170 193 178 193 163 182 208 183 216 195 240 135 214 234 233 226 220 249 282 237 213 219 210 211 204 203 192 181 172 161 150 149
177 170 174 174 169 169 167 174 171 158 146 141 128 158 176 161 175 202 188 187 191 174 177 178 168 165 156 187 205 195 212 215 120 212 220 219 129 166 237 262 255 201 189 187 184 186 177 174 172 171 165 160 153 145
171 180 184 167 161 169 175 173 167 160 154 176 164 145 211 183 224 198 224 141 120 159 161 171 159 185 160 185 180 216 203 172 224 219 230 213 158 280 329 299 243 215 205 211 209 198 185 176 171 167 164 160 157 158
147 156 165 163 153 158 163 164 169 158 183 196 184 188 190 172 153 151 142 155 146 145 156 158 167 199 165 198 209 206 197 234 221 235 175 74 324 313 313 308 277 215 199 200 198 189 182 178 173 164 163 164 169 180
141 150 140 147 144 150 152 158 151 155 293 220 90 166 160 169 146 161 162 146 148 145 152 171 162 199 201 228 192 208 225 219 139 73 71 346 349 341 321 301 263 200 179 176 178 180 179 177 173 169 168 178 188 201
142 140 140 148 143 144 150 159 140 106 175 242 183 180 161 116 148 140 149 137 153 170 173 177 208 185 97 215 216 217 233 65 104 107 78 42 25 14 12 21 184 178 162 169 174 175 174 173 171 172 189 206 212 212
144 135 151 146 151 146 139 132 117 142 166 195 199 159 155 151 154 156 157 152 171 179 199 206 279 224 229 225 220 117 178 151 131 122 98 63 47 42 55 70 89 123 153 168 175 174 176 174 176 179 171 182 208 254
145 143 143 145 140 142 126 136 116 208 200 174 163 174 184 180 183 165 187 209 208 211 208 223 235 236 233 280 280 175 186 175 153 131 123 87 80 77 66 76 92 121 155 169 172 180 186 178 189 199 238 270 269 249
127 142 158 146 142 128 133 158 173 198 181 176 194 194 206 211 208 218 221 223 222 221 216 221 241 228 254 284 234 220 210 209 221 218 210 206 199 196 219 210 216 208 193 190 196 197 208 226 247 263 254 257 252 253
143 138 156 158 149 114 129 161 175 189 162 197 187 200 207 207 210 205 207 211 220 222 236 240 251 253 257 253 243 247 245 243 250 261 265 257 248 249 251 250 248 240 238 235 233 241 244 250 265 266 259 258 250 239
131 136 145 170 140 157 180 168 149 149 187 152 180 198 210 207 209 211 215 218 231 239 237 250 255 263 254 250 253 251 252 255 248 253 258 260 254 252 255 254 250 247 248 245 249 248 254 256 249 244 250 241 245 242
89 86 103 143 169 171 141 147 188 175 198 170 177 204 194 198 186 173 224 227 234 231 234 251 261 272 271 269 268 263 258 255 253 255 257 258 259 260 261 258 252 251 252 251 250 249 248 248 249 249 250 258 256 256
96 131 173 175 180 125 153 171 171 189 183 196 201 202 184 171 165 213 238 161 143 194 203 293 307 290 279 271 272 268 266 265 263 261 259 260 261 261 260 259 256 253 252 255 254 254 253 253 253 253 254 255 256 256
183 143 169 174 144 172 175 169 172 196 194 156 205 201 160 177 216 221 182 114 155 164 307 323 309 300 294 289 283 278 275 273 270 266 259 256 259 261 259 256 255 254 252 252 253 255 255 255 254 253 252 250 250 251
123 102 359 56 106 303 67 175 139 17 14 190 190 109 205 241 247 136 74 106 133 291 310 314 311 299 288 283 284 282 278 274 270 264 263 260 259 258 260 260 260 258 254 253 253 253 253 254 254 253 251 251 251 247
47 88 77 42 345 313 231 70 357 275 218 253 11 300 218 216 153 78 106 314 330 312 311 312 308 298 295 297 296 292 287 282 273 264 263 262 258 254 252 254 256 256 253 250 248 248 247 248 251 250 248 249 243 242
50 24 13 6 40 41 342 301 356 30 43 354 307 242 328 26 65 39 333 312 314 320 315 309 306 301 297 299 300 299 295 291 283 274 271 268 264 258 255 256 259 258 244 240 242 244 245 247 244 242 242 240 238 239
120 26 335 80 79 342 354 39 49 39 356 112 305 36 75 119 155 237 327 334 332 336 334 333 342 335 330 334 335 332 319 303 292 284 277 275 275 268 267 268 267 261 251 243 239 234 236 235 233 237 240 239 237 234
85 353 0 27 66 38 46 107 115 98 65 55 74 62 123 144 168 358 347 348 349 352 349 347 353 358 352 348 345 351 346 335 315 290 279 276 275 274 272 266 267 260 249 239 235 235 237 237 232 226 221 211 211 213
100 89 105 74 63 123 123 124 120 111 80 51 44 61 82 119 132 350 349 356 356 357 356 358 5 357 346 350 336 331 330 340 320 308 308 306 303 286 264 253 247 242 242 237 228 219 222 230 224 217 218 216 213 210
121 156 169 144 146 174 175 190 222 256 246 53 65 31 35 40 355 355 351 356 360 6 11 2 342 329 352 341 350 350 344 340 333 323 314 312 294 295 270 253 250 237 219 228 219 210 211 219 219 210 210 211 211 216
140 168 161 159 185 215 208 201 205 181 136 94 82 24 23 14 340 351 356 350 350 347 352 354 354 358 340 331 345 359 5 11 6 5 32 55 63 26 348 312 247 242 224 221 205 208 215 220 216 207 205 207 212 220
Wind_Speed_850mb
55 55 61 59 56 51 46 40 43 47 37 36 30 26 21 17 15 12 11 14 12 7 3 1 1 3 3 5 12 7 7 10 9 13 14 9 14 7 8 6 8 14 9 12 6 18 24 9 6 9 12 7 5 6
50 48 57 56 52 47 50 43 50 42 29 34 32 29 24 20 18 15 7 16 18 8 5 14 13 12 7 0 4 3 6 5 7 9 5 3 10 5 12 13 6 9 6 9 6 12 4 2 11 4 2 4 1 4
53 49 49 51 55 50 47 43 49 34 33 34 33 30 26 23 20 20 18 16 12 7 15 15 14 17 12 10 7 6 4 1 2 3 4 4 10 7 12 16 10 10 5 9 3 10 11 14 16 17 7 4 7 10
57 59 52 48 50 45 41 51 40 30 32 32 32 31 28 24 22 21 20 21 17 4 8 7 21 18 21 12 10 8 8 4 2 2 7 7 11 4 8 8 12 10 16 12 18 25 17 19 12 9 12 11 12 10
51 48 54 59 47 44 40 45 39 32 31 32 33 30 27 24 21 19 20 24 25 6 5 2 5 9 29 20 13 8 6 4 6 7 9 5 0 7 3 5 15 16 17 14 18 23 12 11 4 11 16 16 13 12
48 53 49 50 48 43 45 41 30 30 32 33 34 30 28 24 23 20 6 21 25 21 5 3 1 3 15 20 15 10 5 2 4 7 4 3 2 6 9 19 21 14 26 24 24 10 15 11 9 13 15 16 14 11
45 44 43 40 36 36 30 25 21 27 33 35 33 30 28 28 35 10 5 10 32 23 5 7 9 7 18 21 13 10 5 3 5 6 10 10 10 8 12 25 33 24 26 23 18 10 11 14 11 19 20 17 16 11
43 42 38 32 28 30 27 24 23 25 34 35 32 28 26 26 33 8 6 8 33 12 5 6 6 13 22 19 20 11 12 8 5 8 6 13 6 12 10 19 29 25 24 23 19 23 12 10 17 22 21 19 15 8
39 41 36 31 31 31 27 23 24 29 35 34 29 25 21 20 14 14 8 11 31 8 5 7 9 9 25 14 10 12 11 10 5 12 12 10 10 13 12 17 14 15 13 9 22 26 17 21 27 25 22 19 14 7
41 40 38 38 33 30 29 29 27 31 36 36 38 10 10 15 18 26 7 6 9 14 8 10 6 7 23 25 21 14 11 9 7 10 12 10 18 31 25 20 17 14 15 14 15 28 33 30 31 26 23 18 14 7
42 41 38 37 35 33 30 34 34 37 41 35 11 8 17 37 23 9 10 12 13 10 16 15 22 10 12 17 13 13 7 9 7 10 9 9 10 20 25 26 32 37 29 19 21 17 26 33 33 29 26 21 14 8
40 37 37 36 35 32 31 37 37 39 22 17 17 25 30 8 9 11 10 10 11 10 15 21 21 9 12 7 10 13 8 8 10 19 8 7 10 18 12 9 8 15 26 24 24 19 23 28 29 30 27 21 15 8
43 43 36 37 35 34 33 32 40 35 32 38 10 13 10 8 6 12 17 9 10 15 18 20 22 16 9 10 6 11 13 12 10 9 8 9 8 7 4 8 7 11 20 18 17 17 22 28 31 31 27 21 18 13
37 41 47 37 34 30 31 35 45 34 26 8 11 7 9 8 11 7 7 9 11 13 20 24 26 12 9 14 8 9 7 5 9 11 13 12 9 2 6 5 7 9 22 25 22 21 28 32 33 30 25 23 19 13
40 38 43 46 37 31 36 40 35 28 4 8 7 8 10 5 7 11 9 13 13 13 20 18 14 10 12 7 9 7 10 12 10 14 6 10 7 9 9 7 4 7 11 17 22 28 33 35 35 31 27 23 17 11
40 42 39 41 40 36 31 31 24 10 1 2 3 6 10 13 14 13 12 15 11 12 15 9 8 8 11 7 12 16 10 10 7 6 3 4 9 10 9 7 6 8 13 16 22 29 34 35 32 28 25 19 15 12
35 43 46 48 41 27 29 36 20 8 3 4 7 3 4 2 15 15 12 10 8 13 8 5 8 11 3 9 11 4 7 8 9 7 6 8 12 13 8 2 3 9 13 19 25 30 32 30 27 23 17 14 15 14
27 30 40 48 42 28 16 7 8 6 3 6 11 15 7 7 11 11 8 4 4 6 7 2 1 8 7 9 9 7 6 8 7 5 5 7 11 13 11 10 9 10 15 20 24 27 27 24 19 17 15 12 5 9
41 36 33 47 30 23 8 8 6 7 8 11 8 11 9 7 6 6 8 5 4 2 2 4 7 6 7 3 5 7 8 8 8 6 5 6 6 7 9 9 9 9 12 16 19 20 20 19 18 11 10 13 17 19
32 29 39 39 30 11 7 7 12 4 9 8 8 13 15 15 14 16 18 16 14 12 13 9 11 11 6 5 6 5 6 6 7 8 8 5 5 4 4 4 6 9 11 11 13 18 18 17 18 21 25 25 25 25
25 22 35 37 14 5 4 7 8 6 7 8 13 16 14 15 19 21 22 19 19 18 19 20 24 24 16 14 14 16 19 21 23 22 23 22 18 16 15 16 17 20 25 29 26 28 27 28 26 33 36 33 28 23
23 25 29 25 4 4 4 6 5 12 9 8 14 14 12 18 20 22 16 22 26 26 24 23 20 19 21 19 20 21 24 25 29 28 27 29 30 33 33 32 31 32 32 32 28 38 27 26 25 28 24 21 27 22
12 11 6 4 4 4 6 5 6 9 9 13 11 9 10 12 10 12 11 16 17 9 13 14 17 20 24 26 26 26 27 29 34 37 36 36 38 40 41 41 40 39 40 39 38 37 37 32 27 30 29 27 29 31
5 3 3 3 3 5 7 6 5 5 7 7 6 6 9 9 12 11 7 8 5 2 3 4 8 12 16 17 19 21 21 22 27 34 37 38 41 43 42 43 43 43 43 41 43 46 45 43 40 38 36 34 33 33
1 2 2 2 3 4 5 8 7 7 3 5 6 7 9 11 6 6 4 9 6 2 4 9 12 16 20 26 29 31 30 31 34 37 38 38 40 41 42 42 44 44 41 43 45 44 43 42 44 45 45 44 40 37
1 2 1 3 4 1 2 2 2 3 1 4 4 1 3 4 4 2 6 5 3 2 10 19 26 32 35 36 41 43 42 39 42 49 51 45 46 51 55 54 53 52 46 47 47 48 47 46 44 43 45 44 48 45
1 5 4 2 3 3 3 1 3 2 1 0 4 4 4 7 3 6 4 4 13 24 35 34 31 33 40 47 48 47 47 45 46 53 53 51 49 49 51 55 58 57 51 51 51 50 48 47 46 47 47 44 42 39
2 3 3 7 3 5 3 4 3 5 4 3 5 3 5 6 4 3 3 17 30 30 29 28 31 37 42 44 44 46 48 46 46 49 54 58 56 52 52 54 57 59 62 52 48 46 49 50 50 48 45 44 45 42
2 2 3 3 4 1 5 6 4 4 4 1 2 2 2 4 3 3 13 22 24 26 28 32 29 26 29 32 37 35 34 34 41 51 60 67 67 66 55 55 54 51 47 50 56 62 48 41 42 39 39 42 41 40
4 5 3 3 3 3 4 6 8 9 8 6 2 2 3 6 3 10 19 25 27 33 33 30 35 32 38 44 42 45 39 37 34 42 58 70 77 73 62 58 55 52 50 53 50 49 49 53 52 51 40 31 34 35
2 4 3 2 2 5 10 11 10 7 7 11 11 8 5 3 2 10 20 27 34 38 38 28 24 33 44 48 41 58 61 58 46 43 47 55 61 61 64 59 50 49 44 51 51 46 45 46 43 51 45 41 37 34
4 3 3 3 5 10 9 9 5 4 2 3 4 10 5 2 4 15 22 31 42 52 45 39 40 28 26 36 46 56 65 59 50 43 45 43 31 23 25 36 46 41 37 51 53 42 44 42 40 51 51 46 40 34
3 4 4 4 4 6 9 9 7 3 4 2 2 6 8 6 4 16 26 29 37 48 51 45 37 33 35 33 48 68 69 59 39 28 22 24 19 11 11 8 6 15 32 41 39 39 39 38 41 50 52 46 38 32
Wind_Direction_850mb
207 209 206 211 218 224 230 245 254 256 248 235 230 234 235 233 238 232 227 203 184 233 266 209 290 262 243 237 252 93 208 200 216 240 247 201 261 198 255 344 267 260 261 264 306 284 284 56 146 265 20 37 75 69
197 198 204 208 211 225 232 241 254 258 236 224 219 224 226 225 226 220 221 211 206 212 278 227 214 208 195 71 296 240 326 338 337 256 233 292 225 201 273 235 175 245 291 319 254 310 32 322 265 335 291 15 122 145
197 202 201 205 213 224 232 240 254 252 225 213 212 215 217 217 216 214 211 199 192 239 259 244 226 231 226 217 204 274 187 314 264 224 315 286 244 277 233 242 268 175 181 250 272 268 280 283 257 233 224 232 152 137
203 207 208 206 206 213 223 243 258 234 209 205 204 205 207 207 205 205 192 190 178 202 255 177 229 231 217 214 211 231 269 274 228 273 253 251 254 213 250 315 255 9 160 254 259 267 265 258 243 222 206 181 158 141
199 209 211 212 208 216 235 252 258 212 201 196 195 196 197 197 193 193 196 195 198 175 334 216 290 240 216 215 210 217 189 188 243 235 231 225 4 218 165 275 247 202 254 238 276 317 263 300 216 187 181 175 168 154
192 190 187 197 209 226 244 252 217 199 192 188 188 188 188 183 172 147 184 218 206 206 281 242 275 188 188 180 178 172 177 200 252 278 270 230 274 272 252 256 266 252 251 257 271 282 265 262 215 189 184 167 155 154
189 179 179 189 204 230 224 203 205 188 182 180 181 183 182 175 167 171 201 209 189 175 214 238 186 185 166 169 182 193 190 213 257 262 242 261 229 241 262 259 264 250 254 250 244 238 227 196 230 187 170 166 168 143
181 178 182 186 206 200 191 198 193 178 170 171 175 177 175 175 177 163 165 152 171 169 209 250 150 180 178 187 189 192 207 214 222 238 214 231 211 232 255 252 252 248 249 245 233 213 240 221 187 175 172 168 161 153
176 176 182 181 185 183 182 182 172 163 160 163 162 154 149 165 170 191 134 141 175 159 243 226 198 166 174 172 170 168 207 216 167 231 213 205 213 225 239 248 233 222 215 237 219 211 210 201 197 184 179 180 182 165
174 176 176 174 168 173 173 167 161 159 154 150 142 133 164 175 163 154 142 145 165 211 231 249 207 168 188 181 184 162 191 231 223 194 151 226 245 242 240 237 227 219 216 222 216 214 215 210 196 188 185 182 171 145
174 174 175 177 171 166 171 168 163 157 150 144 155 147 157 140 133 173 188 205 178 211 203 215 207 170 194 192 176 215 179 178 233 150 220 209 247 235 238 240 243 239 233 238 228 231 215 210 199 188 177 166 150 129
176 171 171 166 168 165 164 163 167 159 158 161 148 133 139 164 175 185 197 176 216 211 170 193 178 193 163 182 208 183 216 195 240 135 214 234 233 226 220 249 282 237 213 219 210 211 204 203 192 181 172 161 150 149
177 170 174 174 169 169 167 174 171 158 146 141 128 158 176 161 175 202 188 187 191 174 177 178 168 165 156 187 205 195 212 215 120 212 220 219 129 166 237 262 255 201 189 187 184 186 177 174 172 171 165 160 153 145
171 180 184 167 161 169 175 173 167 160 154 176 164 145 211 183 224 198 224 141 120 159 161 171 159 185 160 185 180 216 203 172 224 219 230 213 158 280 329 299 243 215 205 211 209 198 185 176 171 167 164 160 157 158
147 156 165 163 153 158 163 164 169 158 183 196 184 188 190 172 153 151 142 155 146 145 156 158 167 199 165 198 209 206 197 234 221 235 175 74 324 313 313 308 277 215 199 200 198 189 182 178 173 164 163 164 169 180
141 150 140 147 144 150 152 158 151 155 293 220 90 166 160 169 146 161 162 146 148 145 152 171 162 199 201 228 192 208 225 219 139 73 71 346 349 341 321 301 263 200 179 176 178 180 179 177 173 169 168 178 188 201
142 140 140 148 143 144 150 159 140 106 175 242 183 180 161 116 148 140 149 137 153 170 173 177 208 185 97 215 216 217 233 65 104 107 78 42 25 14 12 21 184 178 162 169 174 175 174 173 171 172 189 206 212 212
144 135 151 146 151 146 139 132 117 142 166 195 199 159 155 151 154 156 157 152 171 179 199 206 279 224 229 225 220 117 178 151 131 122 98 63 47 42 55 70 89 123 153 168 175 174 176 174 176 179 171 182 208 254
145 143 143 145 140 142 126 136 116 208 200 174 163 174 184 180 183 165 187 209 208 211 208 223 235 236 233 280 280 175 186 175 153 131 123 87 80 77 66 76 92 121 155 169 172 180 186 178 189 199 238 270 269 249
127 142 158 146 142 128 133 158 173 198 181 176 194 194 206 211 208 218 221 223 222 221 216 221 241 228 254 284 234 220 210 209 221 218 210 206 199 196 219 210 216 208 193 190 196 197 208 226 247 263 254 257 252 253
143 138 156 158 149 114 129 161 175 189 162 197 187 200 207 207 210 205 207 211 220 222 236 240 251 253 257 253 243 247 245 243 250 261 265 257 248 249 251 250 248 240 238 235 233 241 244 250 265 266 259 258 250 239
131 136 145 170 140 157 180 168 149 149 187 152 180 198 210 207 209 211 215 218 231 239 237 250 255 263 254 250 253 251 252 255 248 253 258 260 254 252 255 254 250 247 248 245 249 248 254 256 249 244 250 241 245 242
89 86 103 143 169 171 141 147 188 175 198 170 177 204 194 198 186 173 224 227 234 231 234 251 261 272 271 269 268 263 258 255 253 255 257 258 259 260 261 258 252 251 252 251 250 249 248 248 249 249 250 258 256 256
96 131 173 175 180 125 153 171 171 189 183 196 201 202 184 171 165 213 238 161 143 194 203 293 307 290 279 271 272 268 266 265 263 261 259 260 261 261 260 259 256 253 252 255 254 254 253 253 253 253 254 255 256 256
183 143 169 174 144 172 175 169 172 196 194 156 205 201 160 177 216 221 182 114 155 164 307 323 309 300 294 289 283 278 275 273 270 266 259 256 259 261 259 256 255 254 252 252 253 255 255 255 254 253 252 250 250 251
123 102 359 56 106 303 67 175 139 17 14 190 190 109 205 241 247 136 74 106 133 291 310 314 311 299 288 283 284 282 278 274 270 264 263 260 259 258 260 260 260 258 254 253 253 253 253 254 254 253 251 251 251 247
47 88 77 42 345 313 231 70 357 275 218 253 11 300 218 216 153 78 106 314 330 312 311 312 308 298 295 297 296 292 287 282 273 264 263 262 258 254 252 254 256 256 253 250 248 248 247 248 251 250 248 249 243 242
50 24 13 6 40 41 342 301 356 30 43 354 307 242 328 26 65 39 333 312 314 320 315 309 306 301 297 299 300 299 295 291 283 274 271 268 264 258 255 256 259 258 244 240 242 244 245 247 244 242 242 240 238 239
120 26 335 80 79 342 354 39 49 39 356 112 305 36 75 119 155 237 327 334 332 336 334 333 342 335 330 334 335 332 319 303 292 284 277 275 275 268 267 268 267 261 251 243 239 234 236 235 233 237 240 239 237 234
85 353 0 27 66 38 46 107 115 98 65 55 74 62 123 144 168 358 347 348 349 352 349 347 353 358 352 348 345 351 346 335 315 290 279 276 275 274 272 266 267 260 249 239 235 235 237 237 232 226 221 211 211 213
100 89 105 74 63 123 123 124 120 111 80 51 44 61 82 119 132 350 349 356 356 357 356 358 5 357 346 350 336 331 330 340 320 308 308 306 303 286 264 253 247 242 242 237 228 219 222 230 224 217 218 216 213 210
121 156 169 144 146 174 175 190 222 256 246 53 65 31 35 40 355 355 351 356 360 6 11 2 342 329 352 341 350 350 344 340 333 323 314 312 294 295 270 253 250 237 219 228 219 210 211 219 219 210 210 211 211 216
140 168 161 159 185 215 208 201 205 181 136 94 82 24 23 14 340 351 356 350 350 347 352 354 354 358 340 331 345 359 5 11 6 5 32 55 63 26 348 312 247 242 224 221 205 208 215 220 216 207 205 207 212 220